Weather History for KHDE - October, 2013

Change the Weather History Date:

Monday, October 14, 2013

  Actual Average Record
Temperature  
Mean Temperature 54 °F -  
Max Temperature 63 °F 69 °F 88 °F (1989)
Min Temperature 45 °F 39 °F 24 °F (1969)
Degree Days  
Heating Degree Days 11    
Growing Degree Days 4 (Base 50)    
Moisture  
Dew Point 47 °F    
Average Humidity 74    
Maximum Humidity 96    
Minimum Humidity 40    
Precipitation  
Precipitation 1.44 in - - ()
Sea Level Pressure  
Sea Level Pressure 29.90 in    
Wind  
Wind Speed 18 mph (South)    
Max Wind Speed 30 mph    
Max Gust Speed 41 mph    
Visibility 8 miles    
Events Rain , Thunderstorm    
Averages and records for this station are not official NWS values.
T = Trace of Precipitation, MM = Missing Value Source: NWS Daily Summary

Daily Weather History Graph

Daily Weather History Graph

Search for Another Location

Airport or City:

Trip Planner

Search our weather history database for the weather conditions in past years. The results will help you decide how hot, cold, wet, or windy it might be!

Date:

Astronomy

Oct. 14, 2013 Rise Set
Actual Time 7:47 AM CDT 6:58 PM CDT
Civil Twilight 7:20 AM CDT 7:25 PM CDT
Nautical Twilight 6:48 AM CDT 7:57 PM CDT
Astronomical Twilight 6:16 AM CDT 8:28 PM CDT
Moon 4:29 PM CDT (10/14) 3:04 AM CDT (10/14)
Length of Visible Light 12h 05m
Length of Day
11h 10m
Waxing Gibbous, 79% of the Moon is Illuminated
Oct 14
Waxing Gibbous
Oct 18
Full
Oct 26
Last Quarter
Nov 3
New
Nov 9
First Quarter

Hourly Weather History & Observations

Time (CDT) Temp. Windchill Dew Point Humidity Pressure Visibility Wind Dir Wind Speed Gust Speed Precip Events Conditions
12:15 AM 59.0 °F - 34.5 °F 40% 30.15 in 10.0 mi SSE 20.7 mph 29.9 mph N/A   Overcast
12:35 AM 58.6 °F - 35.2 °F 42% 30.14 in 10.0 mi SSE 19.6 mph 26.5 mph N/A   Overcast
12:55 AM 59.0 °F - 35.8 °F 42% 30.13 in 10.0 mi SE 17.3 mph 27.6 mph N/A   Overcast
1:15 AM 59.0 °F - 38.1 °F 46% 30.14 in 10.0 mi SSE 19.6 mph 26.5 mph N/A   Overcast
1:35 AM 59.0 °F - 38.3 °F 46% 30.14 in 10.0 mi SSE 18.4 mph 27.6 mph N/A   Overcast
1:55 AM 59.0 °F - 39.2 °F 48% 30.14 in 10.0 mi SSE 19.6 mph 25.3 mph N/A   Overcast
2:15 AM 58.1 °F - 40.6 °F 52% 30.13 in 10.0 mi SSE 17.3 mph 27.6 mph N/A   Overcast
2:35 AM 57.9 °F - 40.5 °F 52% 30.12 in 10.0 mi SSE 17.3 mph 27.6 mph N/A   Overcast
2:55 AM 57.4 °F - 41.7 °F 56% 30.11 in 10.0 mi SSE 19.6 mph 26.5 mph N/A   Overcast
3:15 AM 56.5 °F - 40.8 °F 56% 30.10 in 10.0 mi SSE 17.3 mph 23.0 mph N/A Thunderstorm Overcast
3:35 AM 56.3 °F - 40.6 °F 56% 30.09 in 10.0 mi SSE 16.1 mph 20.7 mph N/A Thunderstorm Overcast
3:55 AM 55.8 °F - 41.0 °F 58% 30.07 in 10.0 mi SSE 17.3 mph 23.0 mph N/A   Overcast
4:15 AM 55.6 °F - 41.9 °F 60% 30.06 in 10.0 mi SSE 17.3 mph 24.2 mph N/A   Overcast
4:35 AM 55.4 °F - 43.2 °F 63% 30.05 in 10.0 mi SSE 11.5 mph 18.4 mph N/A   Overcast
4:55 AM 54.9 °F - 43.7 °F 66% 30.05 in 10.0 mi SSE 17.3 mph 20.7 mph N/A   Overcast
5:15 AM 54.5 °F - 42.8 °F 65% 30.04 in 10.0 mi SSE 12.7 mph - N/A Thunderstorm Overcast
5:35 AM 54.5 °F - 43.2 °F 66% 30.02 in 10.0 mi SSE 17.3 mph - N/A   Overcast
5:55 AM 53.1 °F - 44.1 °F 71% 30.02 in 10.0 mi SSE 13.8 mph - N/A   Light Drizzle
6:15 AM 53.2 °F - 43.9 °F 71% 30.01 in 10.0 mi SE 12.7 mph - N/A   Overcast
6:35 AM 53.1 °F - 43.9 °F 71% 30.01 in 10.0 mi SE 15.0 mph 21.9 mph N/A Thunderstorm Overcast
6:55 AM 52.7 °F - 44.6 °F 74% 30.00 in 10.0 mi SE 11.5 mph 17.3 mph N/A   Overcast
7:15 AM 53.1 °F - 45.7 °F 76% 29.99 in 10.0 mi SE 16.1 mph - N/A   Overcast
7:35 AM 53.6 °F - 46.4 °F 77% 29.98 in 10.0 mi SE 13.8 mph 21.9 mph N/A   Overcast
7:55 AM 53.8 °F - 46.8 °F 77% 29.97 in 10.0 mi SE 15.0 mph - N/A   Overcast
8:15 AM 52.9 °F - 48.4 °F 85% 29.95 in 10.0 mi SE 16.1 mph - N/A Rain , Thunderstorm Light Thunderstorms and Rain
8:35 AM 52.7 °F - 49.3 °F 88% 29.93 in 7.0 mi SE 17.3 mph - 0.04 in Rain Light Rain
8:55 AM 52.7 °F - 49.5 °F 89% 29.93 in 7.0 mi SE 16.1 mph 21.9 mph 0.05 in Rain Rain
9:15 AM 52.9 °F - 50.4 °F 91% 29.91 in 10.0 mi SE 15.0 mph - 0.01 in Thunderstorm Overcast
9:35 AM 54.0 °F - 51.8 °F 92% 29.90 in 7.0 mi SSE 15.0 mph 23.0 mph 0.01 in Thunderstorm Overcast
9:55 AM 54.5 °F - 52.5 °F 93% 29.88 in 5.0 mi SSE 17.3 mph - 0.01 in Rain , Thunderstorm Light Thunderstorms and Rain
10:15 AM 55.2 °F - 53.2 °F 93% 29.88 in 7.0 mi SSE 15.0 mph 26.5 mph N/A Thunderstorm Thunderstorm
10:35 AM 55.9 °F - 54.1 °F 94% 29.87 in 5.0 mi SSE 21.9 mph 26.5 mph 0.01 in Rain , Thunderstorm Light Thunderstorms and Rain
10:55 AM 56.7 °F - 55.0 °F 94% 29.86 in 5.0 mi SSE 19.6 mph 25.3 mph 0.01 in Rain , Thunderstorm Light Thunderstorms and Rain
11:15 AM 57.4 °F - 55.8 °F 94% 29.84 in 3.0 mi SSE 18.4 mph 28.8 mph 0.01 in Thunderstorm Overcast
11:35 AM 57.7 °F - 56.3 °F 95% 29.82 in 1.2 mi SSE 19.6 mph 27.6 mph 0.11 in Rain , Thunderstorm Heavy Thunderstorms and Rain
11:55 AM 58.5 °F - 57.2 °F 96% 29.81 in 2.0 mi SSE 19.6 mph 25.3 mph 0.14 in Rain , Thunderstorm Thunderstorms and Rain
12:15 PM 60.3 °F - 58.8 °F 95% 29.80 in 1.2 mi South 16.1 mph 34.5 mph 0.31 in Rain , Thunderstorm Heavy Thunderstorms and Rain
12:35 PM 60.4 °F - 58.8 °F 94% 29.77 in 4.0 mi SSE 21.9 mph 29.9 mph 0.47 in Rain , Thunderstorm Light Thunderstorms and Rain
12:55 PM 61.2 °F - 59.4 °F 94% 29.75 in 1.2 mi SSE 28.8 mph 40.3 mph 0.68 in Rain , Thunderstorm Heavy Thunderstorms and Rain
1:15 PM 62.1 °F - 60.1 °F 93% 29.74 in 7.0 mi South 29.9 mph 40.3 mph N/A Thunderstorm Overcast
1:35 PM 62.6 °F - 60.3 °F 92% 29.73 in 2.5 mi South 29.9 mph 41.4 mph 0.04 in Rain , Thunderstorm Rain
1:55 PM 62.8 °F - 60.8 °F 93% 29.72 in 7.0 mi South 29.9 mph 34.5 mph 0.04 in Thunderstorm Overcast
2:15 PM 63.0 °F - 60.4 °F 91% 29.72 in 10.0 mi SSW 13.8 mph 32.2 mph N/A Thunderstorm Overcast
2:35 PM 58.8 °F - 50.9 °F 75% 29.73 in 1.5 mi SSW 25.3 mph 39.1 mph 0.17 in Rain , Thunderstorm Heavy Thunderstorms and Rain
2:55 PM 55.4 °F - 51.6 °F 87% 29.70 in 3.0 mi South 24.2 mph 33.4 mph 0.49 in Rain , Thunderstorm Light Thunderstorms and Rain
3:15 PM 56.7 °F - 51.6 °F 83% 29.69 in 10.0 mi South 18.4 mph 29.9 mph N/A Rain Rain
3:35 PM 56.8 °F - 51.3 °F 82% 29.68 in 7.0 mi SSW 17.3 mph 25.3 mph 0.02 in Rain , Thunderstorm Rain
3:55 PM 58.5 °F - 51.4 °F 77% 29.67 in 10.0 mi South 15.0 mph 21.9 mph 0.02 in Thunderstorm Mostly Cloudy
4:15 PM 59.0 °F - 53.1 °F 81% 29.67 in 10.0 mi South 16.1 mph 24.2 mph N/A   Scattered Clouds
4:35 PM 60.8 °F - 53.8 °F 78% 29.67 in 10.0 mi South 17.3 mph 24.2 mph N/A   Scattered Clouds
4:55 PM 61.7 °F - 53.4 °F 74% 29.67 in 10.0 mi South 15.0 mph - N/A   Scattered Clouds
5:15 PM 61.5 °F - 53.1 °F 74% 29.69 in 10.0 mi South 15.0 mph 19.6 mph N/A   Scattered Clouds
5:35 PM 61.3 °F - 53.1 °F 74% 29.70 in 10.0 mi SSW 16.1 mph 21.9 mph N/A   Clear
5:55 PM 61.2 °F - 53.4 °F 76% 29.73 in 10.0 mi West 17.3 mph 29.9 mph N/A   Scattered Clouds
6:15 PM 59.7 °F - 50.9 °F 73% 29.75 in 10.0 mi WNW 16.1 mph 20.7 mph N/A   Mostly Cloudy
6:35 PM 57.7 °F - 48.7 °F 72% 29.77 in 10.0 mi WNW 16.1 mph 27.6 mph N/A   Scattered Clouds
6:55 PM 55.4 °F - 48.4 °F 77% 29.78 in 10.0 mi NW 12.7 mph 21.9 mph N/A   Scattered Clouds
7:15 PM 55.8 °F - 47.5 °F 74% 29.79 in 10.0 mi WNW 17.3 mph 27.6 mph N/A   Mostly Cloudy
7:35 PM 55.0 °F - 46.8 °F 74% 29.81 in 10.0 mi WNW 16.1 mph 25.3 mph N/A   Overcast
7:55 PM 54.0 °F - 45.7 °F 74% 29.83 in 10.0 mi WNW 18.4 mph 29.9 mph N/A   Overcast
8:15 PM 53.1 °F - 44.8 °F 73% 29.84 in 10.0 mi WNW 15.0 mph 26.5 mph N/A   Overcast
8:35 PM 52.7 °F - 43.7 °F 71% 29.85 in 10.0 mi WNW 16.1 mph 24.2 mph N/A   Overcast
8:55 PM 52.3 °F - 43.2 °F 71% 29.86 in 10.0 mi WNW 18.4 mph 29.9 mph N/A   Overcast
9:15 PM 51.8 °F - 42.1 °F 69% 29.86 in 10.0 mi WNW 18.4 mph 27.6 mph N/A   Overcast
9:35 PM 50.0 °F - 41.9 °F 74% 29.87 in 10.0 mi WNW 15.0 mph 23.0 mph N/A   Scattered Clouds
9:55 PM 49.6 °F - 41.0 °F 72% 29.89 in 10.0 mi WNW 18.4 mph 25.3 mph N/A   Clear
10:15 PM 49.1 °F - 40.1 °F 71% 29.90 in 10.0 mi WNW 16.1 mph 23.0 mph N/A   Scattered Clouds
10:35 PM 48.2 °F - 39.6 °F 72% 29.91 in 10.0 mi WNW 16.1 mph 21.9 mph N/A   Clear
10:55 PM 47.3 °F - 38.3 °F 71% 29.92 in 10.0 mi WNW 17.3 mph 23.0 mph N/A   Clear
11:15 PM 46.4 °F 37.9 °F 37.8 °F 72% 29.92 in 10.0 mi NW 25.3 mph 29.9 mph N/A   Clear
11:35 PM 45.5 °F 38.1 °F 36.9 °F 72% 29.93 in 10.0 mi WNW 18.4 mph 25.3 mph N/A   Clear
11:55 PM 45.1 °F 37.9 °F 36.5 °F 72% 29.94 in 10.0 mi WNW 17.3 mph 25.3 mph N/A   Clear